Погода в Химках

Россия / Московская область     55°53′19″N   37°25′49″E
темп.,
°C
ветер,
м/с
пор.,
м/с
влажн.,
%
обл.,
%
осадки,
мм/ч
давл.,
гПа
погр.,
м
11 апреля, вс
вс1100:00+4ююз311680 0.0 1025239
03:00+2ююз311745 0.0 1025208
06:00+2юз39805 0.0 1027173
09:00+7юз23644 0.0 1028277
12:00+11ююз34495 0.0 1029723
15:00+14ююз34435 0.0 10291432
18:00+13ююз22515 0.0 103056
21:00+9ююв22604 0.0 103214
12 апреля, пн
пн1200:00+7ююв22680 0.0 103323
03:00+6юв33730 0.0 103439
06:00+5вюв24790 0.0 103463
09:00+9вюв4864100 0.0 1034378
12:00+13вюв6950100 0.0 1032910
15:00+14вюв6942100 0.0 10301081
18:00+12вюв5956100 0.0 1029792
21:00+9вюв4973100 0.0 1029421
13 апреля, вт
вт1300:00+7вюв3987100 0.0 1028258
03:00+6вюв379689 0.0 1027156
06:00+6юв3796100 0.0 1026133
09:00+10ююв3875100 0.0 1025229
12:00+15ююв585597 0.0 1025512
15:00+18ю684399 0.0 1024944
18:00+16ю3649100 0.0 1023206
21:00+13ююв31062100 0.0 1023200
14 апреля, ср
ср1400:00+10ююв356350 0.0 102374
03:00+9юв3365100 0.0 102354
06:00+8юв347277 0.0 102267
09:00+13ююв4757100 0.0 1022274
12:00+17ююв4747100 0.0 1021652
15:00+18ююв5738100 0.0 10201212
18:00+17ююв4840100 0.0 1019454
21:00+13юв355273 0.0 101993
15 апреля, чт
чт1500:00+11ююв2360100 0.0 101948
03:00+10юв226396 0.0 101818
06:00+9в1168100 0.0 101810
09:00+11св2360100 0.0 1018183
12:00+14ссв2252100 0.0 1018621
15:00+15ссв4352100 0.0 10171014
18:00+11с6968100 0.0 1018607
21:00+6ссв61183100 0.0 1021488